Regional Weather Roundup
Issued by NWS

Home | Current Version | Previous Version | Graphics & Text | Print | Product List | Glossary On
Versions: 1 2 3 4 5 6 7 8 9 10 11 12 13 14 15 16 17 18 19 20 21 22 23 24 25 26 27 28 29 30 31 32 33 34 35 36 37 38 39 40 41 42 43 44 45 46 47 48 49 50
000
ASUS44 KMEG 202210
RWRTN
TENNESSEE HOURLY STATE WEATHER ROUNDUP
NATIONAL WEATHER SERVICE MEMPHIS TN
400 PM CST FRI JAN 20 2017

TNZ002-004-019-021-049-052-054-088>092-202300-
WEST TENNESSEE

CITY           SKY/WX    TMP DP  RH WIND       PRES   REMARKS
MEMPHIS INTL   PTSUNNY   67  57  70 S15       29.67S
NWS MEMPHIS      N/A     67 N/A N/A MISG        N/A
JACKSON        MOSUNNY   66  55  67 S8        29.69R
DYERSBURG      MOSUNNY   64  54  68 S10G17    29.66S
UNION CITY     MOSUNNY   61  61 100 S10       29.66R
PARIS          PTSUNNY   61  54  77 CALM      29.69R
HUNTINGDON     PTSUNNY   64  55  72 S12       29.68R
$$

TNZ008-025-027-028-033-062-065-066-202300-
NORTH MIDDLE TENNESSEE

CITY           SKY/WX    TMP DP  RH WIND       PRES   REMARKS
NASHVILLE      MOCLDY    68  52  56 S14       29.73S
PORTLAND       PTCLDY    64  54  68 S14       29.73S
CLARKSVILLE    MOSUNNY   65  52  62 S12       29.68F
SMYRNA         PTCLDY    68  53  58 S8G17     29.74S
GALLATIN       PTCLDY    68  52  56 SW8G15    29.76S
CROSSVILLE     MOCLDY    62  49  62 S6        29.79F
$$

TNZ061-075-076-078-094-096-097-202300-
SOUTH MIDDLE TENNESSEE

CITY           SKY/WX    TMP DP  RH WIND       PRES   REMARKS
TULLAHOMA      MOSUNNY   64  50  59 S8        29.76S
WINCHESTER     MOSUNNY   68  52  56 SW9       29.76F
MCMINNVILLE    CLEAR     66  52  59 SW9       29.76S
COLUMBIA       SUNNY     66  57  72 S10       29.71S
SHELBYVILLE    MOSUNNY   68  54  60 S10       29.75S
$$

TNZ017-018-042-046-047-202300-
NORTHEAST TENNESSEE

CITY           SKY/WX    TMP DP  RH WIND       PRES   REMARKS
TRI CITIES     MOCLDY    64  49  57 W8        29.80S
ELIZABETHTON   CLEAR     64  52  63 W5        29.80S
$$

TNZ012-013-036-069-073-074-202300-
CENTRAL EAST TENNESSEE

CITY           SKY/WX    TMP DP  RH WIND       PRES   REMARKS
KNOXVILLE      MOCLDY    67  50  54 SW13      29.78S
OAK RIDGE      PTCLDY    67  49  52 SW6       29.79S
GATLINBURG     CLEAR     68  48  49 W7        29.78S
MORRISTOWN     CLEAR     66  50  55 W10G18    29.79R
JACKSBORO      PTCLDY    64  50  59 SW7       29.81R
$$

TNZ083-085-099-202300-
SOUTHEAST TENNESSEE

CITY           SKY/WX    TMP DP  RH WIND       PRES   REMARKS
CHATTANOOGA    MOCLDY    71  50  47 S10       29.78S
$$

SKY/WX REPORTED AS FAIR MEANS FEW OR NO CLOUDS BELOW
12 THOUSAND FEET.




USA.gov is the U.S. government's official web portal to all federal, state and local government web resources and services.